Location: Liscomb Game Sanctuary
(45.1633°N, 62.5575°W)
Time: 06:10:51
(UTC-03:00)

Amateur Radio Satellites - All Passes

Search period start: 02 September 2014 05:40
Search period end: 03 September 2014 05:40
Location: Liscomb Game Sanctuary, 45.1633°N, 62.5575°W

Satellite Date Start Highest point End Downlink Frequencies (MHz)
Time Altitude Azimuth
JAS-2 02 Sep 05:44:06 05:45:44 11° 88° (E) 05:47:24 435.800 - 435.900 CW/SSB, 435.910 FM
Hamsat 02 Sep 05:48:29 05:48:46 10° 87° (E) 05:49:03 145.90 MHz
SO-50 02 Sep 06:09:25 06:11:48 14° 331° (NNW) 06:14:13 436.795 FM
UOSAT-12 02 Sep 06:11:37 06:16:13 63° 309° (NW) 06:20:55 437.025 FM, 437.400 FM
Uosat F 02 Sep 06:17:02 06:21:50 48° 291° (WNW) 06:26:38 435.120 FM
TMSAT-1 02 Sep 06:18:16 06:20:37 13° 304° (NW) 06:22:58 436.925 FM
RS-15 02 Sep 06:19:27 06:27:22 23° 101° (E) 06:35:10 29.354 - 29.394 USB, Beacon 29.352 USB
KITSAT 1 02 Sep 06:25:01 06:31:42 27° 31° (NNE) 06:38:21 435.175 FM
AO-7 02 Sep 06:30:18 06:38:29 66° 294° (WNW) 06:46:38 29.400 - 29.500 MHz
Saudisat 1A 02 Sep 06:32:15 06:36:32 45° 48° (NE) 06:40:46 436.775 MHz
STRAND 1 02 Sep 07:03:57 07:09:03 89° 75° (ENE) 07:14:11 ?
Hamsat 02 Sep 07:20:57 07:25:20 82° 284° (WNW) 07:29:38 145.90 MHz
JAS-2 02 Sep 07:26:15 07:31:33 88° 105° (ESE) 07:37:15 435.800 - 435.900 CW/SSB, 435.910 FM
UOSAT-12 02 Sep 07:54:37 07:57:19 15° 330° (NNW) 08:00:02 437.025 FM, 437.400 FM
SO-67 02 Sep 08:03:14 08:06:34 42° 99° (E) 08:09:51 435.3500 MHz FM
Saudisat 1A 02 Sep 08:12:21 08:15:52 23° 246° (WSW) 08:19:22 436.775 MHz
KITSAT 1 02 Sep 08:20:17 08:28:25 80° 55° (NE) 08:36:29 435.175 FM
AO-7 02 Sep 08:24:45 08:29:46 18° 316° (NW) 08:34:46 29.400 - 29.500 MHz
RS-15 02 Sep 08:27:01 08:38:06 87° 123° (ESE) 08:49:05 29.354 - 29.394 USB, Beacon 29.352 USB
STRAND 1 02 Sep 08:47:08 08:48:57 12° 273° (W) 08:50:46 ?
JAS-2 02 Sep 09:13:20 09:16:03 14° 302° (WNW) 09:18:49 435.800 - 435.900 CW/SSB, 435.910 FM
HO-68 02 Sep 09:13:28 09:19:13 25° 93° (E) 09:24:56 435.675 MHz FM
ISS 02 Sep 09:15:59 09:17:39 13° 133° (SE) 09:19:19 145.800 FM
SO-50 02 Sep 09:36:40 09:37:33 10° 22° (NNE) 09:38:26 436.795 FM
SO-67 02 Sep 09:37:32 09:39:15 13° 295° (WNW) 09:40:58 435.3500 MHz FM
KITSAT 1 02 Sep 10:16:48 10:22:57 25° 256° (WSW) 10:29:06 435.175 FM
RS-15 02 Sep 10:41:54 10:51:51 38° 331° (NNW) 11:01:52 29.354 - 29.394 USB, Beacon 29.352 USB
ISS 02 Sep 10:50:35 10:53:55 86° 149° (SSE) 10:57:16 145.800 FM
UKube-1 02 Sep 10:55:14 10:59:36 85° 286° (WNW) 11:03:57 145.840 MHz, 145.915 MHz
Oscar 11 02 Sep 10:58:28 11:02:51 73° 102° (ESE) 11:07:12 145.825 FM, Beacon 2401.500 USB
HO-68 02 Sep 11:00:22 11:07:28 68° 291° (WNW) 11:14:33 435.675 MHz FM
SO-50 02 Sep 11:15:08 11:19:32 35° 44° (NE) 11:23:58 436.795 FM
FUNcube-1 02 Sep 11:31:28 11:36:01 67° 101° (ESE) 11:40:35 145.950 - 145.970 MHz USB
JAS-1B 02 Sep 11:42:51 11:43:49 10° 42° (NE) 11:44:45 435.800 - 435.900 CW/SSB
Oscar 16 02 Sep 12:15:45 12:18:34 15° 57° (ENE) 12:21:22 437.025 USB, Beacon 2401.1428
MaSat-1 02 Sep 12:21:52 12:25:53 25° 105° (ESE) 12:30:02 437.345 MHz
ISS 02 Sep 12:27:57 12:30:56 30° 349° (NNW) 12:33:56 145.800 FM
UKube-1 02 Sep 12:34:24 12:35:05 10° 303° (WNW) 12:35:45 145.840 MHz, 145.915 MHz
Oscar 11 02 Sep 12:36:21 12:38:28 13° 300° (WNW) 12:40:34 145.825 FM, Beacon 2401.500 USB
AO-27 02 Sep 12:49:16 12:51:42 13° 56° (NE) 12:54:08 436.795 MHz FM
HO-68 02 Sep 12:49:58 12:53:55 16° 312° (NW) 12:57:51 435.675 MHz FM
SO-50 02 Sep 12:55:43 13:00:08 37° 243° (WSW) 13:04:35 436.795 FM
RS-15 02 Sep 12:59:23 13:08:19 27° 5° (N) 13:17:23 29.354 - 29.394 USB, Beacon 29.352 USB
UOSAT-12 02 Sep 12:59:35 13:03:52 32° 43° (NE) 13:08:05 437.025 FM, 437.400 FM
FUNcube-1 02 Sep 13:09:14 13:11:54 16° 299° (WNW) 13:14:35 145.950 - 145.970 MHz USB
Oscar 19 02 Sep 13:16:57 13:21:51 45° 69° (ENE) 13:26:47 437.125 CW, 437.150 USB
AO-Echo 02 Sep 13:23:10 13:27:11 25° 65° (ENE) 13:31:07 ?
JAS-1B 02 Sep 13:23:43 13:32:20 41° 63° (ENE) 13:39:57 435.800 - 435.900 CW/SSB
Gurwin Techsat 1B 02 Sep 13:32:32 13:35:31 15° 57° (ENE) 13:38:31 435.225 FM
Oscar 16 02 Sep 13:52:01 13:57:12 87° 256° (WSW) 14:02:26 437.025 USB, Beacon 2401.1428
AO-7 02 Sep 13:52:13 13:56:01 14° 39° (NE) 13:59:49 29.400 - 29.500 MHz
ITAMSAT 1 02 Sep 13:55:44 14:00:39 46° 69° (ENE) 14:05:35 435.822 SSB
MaSat-1 02 Sep 13:57:43 14:02:35 50° 304° (WNW) 14:07:37 437.345 MHz
Uribyol 2 02 Sep 14:04:47 14:09:50 59° 71° (ENE) 14:14:55 436.500 FM
ISS 02 Sep 14:05:21 14:08:18 28° 9° (N) 14:11:15 145.800 FM
TMSAT-1 02 Sep 14:20:24 14:24:50 28° 64° (ENE) 14:29:16 436.925 FM
AO-27 02 Sep 14:25:15 14:30:26 85° 74° (ENE) 14:35:38 436.795 MHz FM
UOSAT-12 02 Sep 14:39:41 14:44:07 40° 242° (WSW) 14:48:28 437.025 FM, 437.400 FM
Oscar 19 02 Sep 14:57:11 15:01:23 25° 267° (W) 15:05:38 437.125 CW, 437.150 USB
AO-Echo 02 Sep 15:01:03 15:05:46 42° 262° (W) 15:10:23 ?
Gurwin Techsat 1B 02 Sep 15:09:27 15:14:46 86° 256° (WSW) 15:20:07 435.225 FM
JAS-1B 02 Sep 15:13:02 15:22:34 59° 260° (W) 15:31:01 435.800 - 435.900 CW/SSB
RS-15 02 Sep 15:13:40 15:24:13 48° 38° (NE) 15:35:04 29.354 - 29.394 USB, Beacon 29.352 USB
Oscar 16 02 Sep 15:35:43 15:37:19 11° 273° (W) 15:38:55 437.025 USB, Beacon 2401.1428
ITAMSAT 1 02 Sep 15:36:13 15:40:22 24° 267° (W) 15:44:32 435.822 SSB
AO-7 02 Sep 15:38:58 15:46:54 51° 62° (ENE) 15:54:50 29.400 - 29.500 MHz
MaSat-1 02 Sep 15:39:05 15:40:49 12° 324° (NW) 15:42:34 437.345 MHz
ISS 02 Sep 15:42:03 15:45:23 79° 28° (NNE) 15:48:43 145.800 FM
Uribyol 2 02 Sep 15:46:06 15:49:43 19° 269° (W) 15:53:20 436.500 FM
Uosat F 02 Sep 15:53:59 15:58:35 38° 67° (ENE) 16:03:12 435.120 FM
TMSAT-1 02 Sep 15:59:32 16:04:33 43° 262° (W) 16:09:36 436.925 FM
AO-27 02 Sep 16:08:21 16:10:37 13° 272° (W) 16:12:54 436.795 MHz FM
Sapphire 02 Sep 16:09:16 16:13:46 28° 109° (ESE) 16:18:18 437.095 MHz 1200 baud AX-25 AFSK
PCSat 02 Sep 16:37:31 16:42:43 51° 115° (ESE) 16:47:58 145.825 MHz
Hamsat 02 Sep 16:43:47 16:44:58 11° 59° (ENE) 16:46:09 145.90 MHz
Gurwin Techsat 1B 02 Sep 16:53:44 16:55:31 12° 273° (W) 16:57:18 435.225 FM
JAS-1B 02 Sep 17:11:09 17:14:29 12° 278° (W) 17:17:43 435.800 - 435.900 CW/SSB
ISS 02 Sep 17:19:34 17:21:45 17° 226° (SW) 17:23:56 145.800 FM
OPAL 02 Sep 17:23:57 17:28:53 41° 100° (E) 17:33:46 ?
RS-15 02 Sep 17:26:15 17:37:07 65° 243° (WSW) 17:48:25 29.354 - 29.394 USB, Beacon 29.352 USB
AO-7 02 Sep 17:32:06 17:39:50 41° 262° (W) 17:47:36 29.400 - 29.500 MHz
Uosat F 02 Sep 17:33:11 17:37:27 28° 265° (W) 17:41:45 435.120 FM
JAS-2 02 Sep 17:40:47 17:46:23 46° 69° (ENE) 17:51:30 435.800 - 435.900 CW/SSB, 435.910 FM
Sapphire 02 Sep 17:51:41 17:56:56 49° 308° (NW) 18:02:13 437.095 MHz 1200 baud AX-25 AFSK
Hamsat 02 Sep 18:15:53 18:20:13 89° 257° (WSW) 18:24:37 145.90 MHz
PCSat 02 Sep 18:21:38 18:26:23 30° 315° (NW) 18:31:10 145.825 MHz
SO-67 02 Sep 18:38:45 18:41:24 21° 68° (ENE) 18:44:03 435.3500 MHz FM
OPAL 02 Sep 19:03:06 19:07:36 30° 298° (WNW) 19:12:05 ?
STRAND 1 02 Sep 19:13:01 19:17:15 26° 94° (E) 19:21:28 ?
JAS-2 02 Sep 19:26:46 19:31:41 26° 265° (W) 19:36:14 435.800 - 435.900 CW/SSB, 435.910 FM
Sapphire 02 Sep 19:39:13 19:41:43 13° 331° (NNW) 19:44:13 437.095 MHz 1200 baud AX-25 AFSK
RS-15 02 Sep 19:42:04 19:47:11 14° 265° (W) 19:52:23 29.354 - 29.394 USB, Beacon 29.352 USB
HO-68 02 Sep 19:44:55 19:50:32 26° 56° (NE) 19:56:09 435.675 MHz FM
SO-67 02 Sep 20:11:23 20:14:19 25° 265° (W) 20:17:16 435.3500 MHz FM
UKube-1 02 Sep 20:19:16 20:21:16 13° 59° (ENE) 20:23:16 145.840 MHz, 145.915 MHz
MaSat-1 02 Sep 20:37:53 20:39:59 13° 37° (NE) 20:41:58 437.345 MHz
STRAND 1 02 Sep 20:51:47 20:56:36 43° 292° (WNW) 21:01:24 ?
HO-68 02 Sep 21:30:29 21:37:36 74° 255° (WSW) 21:44:47 435.675 MHz FM
UKube-1 02 Sep 21:52:33 21:56:53 75° 257° (WSW) 22:01:15 145.840 MHz, 145.915 MHz
Oscar 11 02 Sep 21:55:15 21:59:34 73° 74° (ENE) 22:03:56 145.825 FM, Beacon 2401.500 USB
MaSat-1 02 Sep 22:13:23 22:18:00 71° 60° (ENE) 22:21:58 437.345 MHz
Saudisat 1A 02 Sep 22:19:42 22:23:59 54° 121° (ESE) 22:28:19 436.775 MHz
FUNcube-1 02 Sep 22:29:57 22:34:07 67° 74° (ENE) 22:38:25 145.950 - 145.970 MHz USB
KITSAT 1 02 Sep 22:50:53 22:58:18 42° 111° (ESE) 23:05:45 435.175 FM
Sapphire 02 Sep 23:12:54 23:14:18 11° 25° (NNE) 23:15:42 437.095 MHz 1200 baud AX-25 AFSK
HO-68 02 Sep 23:23:23 23:26:31 13° 274° (W) 23:29:40 435.675 MHz FM
Oscar 11 02 Sep 23:34:47 23:36:16 12° 272° (W) 23:37:46 145.825 FM, Beacon 2401.500 USB
PCSat 02 Sep 23:40:58 23:44:11 16° 33° (NNE) 23:47:23 145.825 MHz
MaSat-1 02 Sep 23:52:30 23:54:07 12° 262° (W) 23:55:40 437.345 MHz
Saudisat 1A 03 Sep 00:00:15 00:03:52 24° 320° (NW) 00:07:29 436.775 MHz
FUNcube-1 03 Sep 00:09:23 00:11:02 12° 272° (W) 00:12:42 145.950 - 145.970 MHz USB
AO-40 03 Sep 00:23:13 01:07:39 11° 112° (ESE) 01:41:46 Beacon 2401.320
KITSAT 1 03 Sep 00:45:40 00:53:33 54° 312° (NW) 01:01:28 435.175 FM
Sapphire 03 Sep 00:54:18 00:59:22 38° 48° (NE) 01:04:24 437.095 MHz 1200 baud AX-25 AFSK
PCSat 03 Sep 01:23:17 01:28:43 64° 55° (NE) 01:34:05 145.825 MHz
Oscar 19 03 Sep 01:28:08 01:30:39 14° 88° (E) 01:33:09 437.125 CW, 437.150 USB
Oscar 16 03 Sep 02:02:07 02:06:37 29° 95° (E) 02:11:04 437.025 USB, Beacon 2401.1428
ITAMSAT 1 03 Sep 02:08:06 02:10:42 14° 89° (E) 02:13:17 435.822 SSB
Uribyol 2 03 Sep 02:16:29 02:19:57 18° 91° (E) 02:23:25 436.500 FM
AO-27 03 Sep 02:36:45 02:41:04 26° 94° (E) 02:45:21 436.795 MHz FM
Sapphire 03 Sep 02:37:48 02:42:48 38° 248° (WSW) 02:47:46 437.095 MHz 1200 baud AX-25 AFSK
KITSAT 1 03 Sep 02:45:09 02:51:00 21° 338° (NNW) 02:56:53 435.175 FM
JAS-1B 03 Sep 02:58:20 03:04:27 38° 95° (E) 03:09:51 435.800 - 435.900 CW/SSB
OPAL 03 Sep 03:05:02 03:07:47 15° 54° (NE) 03:10:33 ?
Oscar 19 03 Sep 03:05:25 03:10:39 82° 286° (WNW) 03:15:49 437.125 CW, 437.150 USB
AO-Echo 03 Sep 03:05:48 03:10:23 50° 100° (E) 03:14:59 ?
PCSat 03 Sep 03:07:41 03:11:38 21° 253° (WSW) 03:15:34 145.825 MHz
SO-50 03 Sep 03:12:20 03:16:34 44° 119° (ESE) 03:20:56 436.795 FM
Gurwin Techsat 1B 03 Sep 03:23:56 03:28:42 33° 96° (E) 03:33:26 435.225 FM
Oscar 16 03 Sep 03:41:14 03:46:04 40° 292° (WNW) 03:50:52 437.025 USB, Beacon 2401.1428
AO-7 03 Sep 03:41:41 03:44:08 11° 84° (E) 03:46:35 29.400 - 29.500 MHz
ITAMSAT 1 03 Sep 03:45:36 03:50:49 81° 286° (WNW) 03:56:00 435.822 SSB
Uribyol 2 03 Sep 03:54:43 03:59:52 64° 288° (WNW) 04:05:01 436.500 FM
TMSAT-1 03 Sep 04:12:53 04:18:10 65° 102° (ESE) 04:23:25 436.925 FM
AO-27 03 Sep 04:15:51 04:20:45 44° 292° (WNW) 04:25:39 436.795 MHz FM
OPAL 03 Sep 04:40:49 04:45:54 89° 73° (ENE) 04:51:07 ?
KITSAT 1 03 Sep 04:45:02 04:50:02 17° 9° (N) 04:55:02 435.175 FM
AO-Echo 03 Sep 04:45:26 04:48:50 20° 297° (WNW) 04:52:14 ?
Oscar 19 03 Sep 04:46:51 04:49:10 13° 304° (NW) 04:51:28 437.125 CW, 437.150 USB
JAS-1B 03 Sep 04:49:03 04:55:06 36° 298° (WNW) 05:00:27 435.800 - 435.900 CW/SSB
UOSAT-12 03 Sep 04:52:31 04:56:46 37° 117° (ESE) 05:01:06 437.025 FM, 437.400 FM
SO-50 03 Sep 04:53:22 04:57:18 29° 318° (NW) 05:01:20 436.795 FM
Gurwin Techsat 1B 03 Sep 05:03:51 05:08:41 36° 293° (WNW) 05:13:29 435.225 FM
Saudisat 1A 03 Sep 05:05:54 05:08:39 16° 33° (NNE) 05:11:22 436.775 MHz
ITAMSAT 1 03 Sep 05:27:17 05:29:29 13° 305° (NW) 05:31:41 435.822 SSB
Uribyol 2 03 Sep 05:37:53 05:38:21 10° 307° (NW) 05:38:49 436.500 FM
